Regional Weather Roundup
Issued by NWS

Home | Current Version | Previous Version | Graphics & Text | Print | Product List | Glossary Off
Versions: 1 2 3 4 5 6 7 8 9 10 11 12 13 14 15 16 17 18 19 20 21 22 23 24 25 26 27 28 29 30 31 32 33 34 35 36 37 38 39 40 41 42 43 44 45 46 47 48 49 50

000
ASUS43 KTOP 182208
RWRKS

WEATHER ROUNDUP FOR KANSAS
NATIONAL WEATHER SERVICE GOODLAND KS
400 PM CST WED JAN 18 2017

NOTE:  "FAIR" INDICATES FEW OR NO CLOUDS BELOW 12,000 FEET WITH NO
SIGNIFICANT WEATHER AND/OR OBSTRUCTIONS TO VISIBILITY.

KSZ001>006-013>018-027>032-041>047-182300-
NORTHWEST KANSAS

CITY           SKY/WX    TMP DP  RH WIND       PRES   REMARKS
GOODLAND       CLOUDY    47  38  71 S13       29.80F
HAYS           SUNNY     57  42  57 S15       29.87S
HILL CITY      CLOUDY    53  42  66 S13       29.87F
$$

KSZ061>065-074>080-084>089-182300-
SOUTHWEST KANSAS

CITY           SKY/WX    TMP DP  RH WIND       PRES   REMARKS
DODGE CITY     SUNNY     56  40  55 S23       29.86F
ELKHART          N/A     53  35  50 S13         N/A
GARDEN CITY    MOSUNNY   54  41  61 S18       29.84F
GREAT BEND     SUNNY     56  42  59 S21       29.87F
LIBERAL        SUNNY     57  43  58 S14       29.85F
PRATT          SUNNY     51  39  63 SE13G21   29.91F
$$

KSZ066>073-081>083-090>101-182300-
SOUTHEAST KANSAS

CITY           SKY/WX    TMP DP  RH WIND       PRES   REMARKS
CHANUTE        CLOUDY    49  40  71 E6        30.01F
COFFEYVILLE    CLOUDY    51  40  65 CALM      30.03S
HUTCHINSON     SUNNY     55  35  47 S16       29.93F
MEDICINE LODGE   N/A     54  40  59 S16       29.92F
NEWTON         SUNNY     52  40  63 S16       29.95F
PARSONS        CLOUDY    50  39  66 SE5       30.03F
WICHITA INTL   MOSUNNY   54  41  61 S14       29.96F
WICHITA JABRA  MOSUNNY   53  39  59 S14       29.97S
WICHITA MCCONL MOSUNNY   54  39  55 S14       29.96F
WINFIELD       CLOUDY    53  38  56 SE10      30.00F
$$

KSZ007>012-019>026-033>040-048>060-102>105-182300-
NORTHEAST KANSAS

CITY           SKY/WX    TMP DP  RH WIND       PRES   REMARKS
CONCORDIA      SUNNY     53  39  59 S14       29.90F
EMPORIA        PTSUNNY   52  33  48 S13       29.97F
LAWRENCE       SUNNY     50  38  63 SE12      30.00F
MANHATTAN      SUNNY     58  31  35 SW10      29.94F
MARYSVILLE     SUNNY     55  36  47 S10       29.93F
OLATHE IND     SUNNY     48  38  68 S12       30.01F
OLATHE EXE     SUNNY     47  41  80 S10       30.01F
SALINA         SUNNY     55  37  50 S15       29.92F
TOPEKA BILLARD SUNNY     54  39  57 SE13      29.98F
TOPEKA FORBES  SUNNY     56  35  45 S12       29.97F
$$



USA.gov is the U.S. government's official web portal to all federal, state and local government web resources and services.